When you browse on this site, cookies collect data to enhance your experience and personalize the content and advertising you see.
Visit our Privacy Policy to learn more. By continuing to use the site, you agree to this use of cookies and data.
  • In Hungary
  • List of Countries
  • For 7 days
  • Water Temperature
  • Satellite Maps
  • Weather Map
  • News
  • Weather Widgets
  • user-avatar
    Login

    Hourly Weather Bregenz

    Today, 21 January, Monday

    Time Temperature Precipitation Wind Pressure Humidity
    00:00 -8°C° 0 mm 1 mps 642 mmHg 85%
    01:00 -8°C° 0 mm 1 mps 642 mmHg 85%
    02:00 -8°C° 0 mm 1 mps 642 mmHg 85%
    03:00 -9°C° 0 mm 1 mps 642 mmHg 85%
    04:00 -9°C° 0 mm 1 mps 642 mmHg 85%
    05:00 -9°C° 0 mm 1 mps 642 mmHg 85%
    06:00 -9°C° 0 mm 1 mps 642 mmHg 85%
    07:00 -9°C° 0 mm 1 mps 642 mmHg 85%
    08:00 -8°C° 0 mm 1 mps 643 mmHg 84%
    09:00 -7°C° 0 mm 0 mps 643 mmHg 83%
    10:00 -6°C° 0 mm 0 mps 643 mmHg 82%
    11:00 -5°C° 0 mm 0 mps 643 mmHg 81%
    12:00 -4°C° 0 mm 1 mps 643 mmHg 81%
    13:00 -3°C° 0 mm 1 mps 643 mmHg 80%
    14:00 -3°C° 0 mm 1 mps 643 mmHg 83%
    15:00 -3°C° 0 mm 1 mps 643 mmHg 86%
    16:00 -4°C° 0 mm 1 mps 643 mmHg 90%
    17:00 -6°C° 0 mm 1 mps 643 mmHg 91%
    18:00 -7°C° 0 mm 1 mps 643 mmHg 92%
    19:00 -7°C° 0 mm 0 mps 643 mmHg 94%
    20:00 -8°C° 0 mm 1 mps 643 mmHg 92%
    21:00 -8°C° 0 mm 1 mps 643 mmHg 91%
    22:00 -9°C° 0 mm 1 mps 643 mmHg 90%
    23:00 -9°C° 0 mm 1 mps 642 mmHg 88%

    Tomorrow, 22 January, Tuesday

    Time Temperature Precipitation Wind Pressure Humidity
    00:00 -10°C° 0 mm 1 mps 642 mmHg 87%
    01:00 -12°C° 0 mm 2 mps 642 mmHg 86%
    02:00 -12°C° 0 mm 2 mps 641 mmHg 84%
    03:00 -13°C° 0 mm 2 mps 640 mmHg 83%
    04:00 -13°C° 0 mm 2 mps 640 mmHg 81%
    05:00 -13°C° 0 mm 2 mps 639 mmHg 80%
    06:00 -13°C° 0 mm 2 mps 639 mmHg 79%
    07:00 -13°C° 0 mm 2 mps 638 mmHg 78%
    08:00 -12°C° 0 mm 2 mps 638 mmHg 76%
    09:00 -9°C° 0 mm 1 mps 638 mmHg 74%
    10:00 -8°C° 0 mm 1 mps 638 mmHg 73%
    11:00 -6°C° 0 mm 1 mps 638 mmHg 69%
    12:00 -4°C° 0 mm 0 mps 637 mmHg 65%
    13:00 -3°C° 0 mm 0 mps 637 mmHg 62%
    14:00 -3°C° 0 mm 0 mps 636 mmHg 66%
    15:00 -4°C° 0 mm 0 mps 635 mmHg 71%
    16:00 -3°C° 0 mm 1 mps 634 mmHg 75%
    17:00 -6°C° 0 mm 1 mps 633 mmHg 76%
    18:00 -7°C° 0 mm 1 mps 633 mmHg 78%
    19:00 -10°C° 0 mm 2 mps 632 mmHg 79%
    20:00 -10°C° 0 mm 2 mps 632 mmHg 78%
    21:00 -10°C° 0 mm 2 mps 632 mmHg 77%
    22:00 -12°C° 0 mm 2 mps 631 mmHg 77%
    23:00 -12°C° 0 mm 2 mps 631 mmHg 76%

    Day after tomorrow, 23 January, Wednesday

    Time Temperature Precipitation Wind Pressure Humidity
    00:00 -12°C° 0 mm 2 mps 631 mmHg 75%
    01:00 -13°C° 0 mm 2 mps 630 mmHg 74%
    02:00 -13°C° 0 mm 2 mps 630 mmHg 74%
    03:00 -13°C° 0 mm 2 mps 630 mmHg 74%
    04:00 -13°C° 0 mm 2 mps 629 mmHg 73%
    05:00 -13°C° 0 mm 2 mps 629 mmHg 75%
    06:00 -11°C° 0 mm 1 mps 629 mmHg 76%
    07:00 -10°C° 0 mm 1 mps 629 mmHg 77%
    08:00 -9°C° 0.1 mm 1 mps 630 mmHg 77%
    09:00 -9°C° 0.1 mm 1 mps 630 mmHg 78%
    10:00 -8°C° 0.1 mm 0 mps 630 mmHg 78%
    11:00 -7°C° 0 mm 1 mps 630 mmHg 78%
    12:00 -6°C° 0 mm 1 mps 630 mmHg 79%
    13:00 -6°C° 0 mm 1 mps 630 mmHg 79%
    14:00 -6°C° 0 mm 1 mps 630 mmHg 82%
    15:00 -6°C° 0 mm 1 mps 630 mmHg 84%
    16:00 -7°C° 0 mm 2 mps 630 mmHg 87%
    17:00 -8°C° 0.1 mm 2 mps 631 mmHg 90%
    18:00 -8°C° 0.1 mm 2 mps 631 mmHg 92%
    19:00 -8°C° 0.1 mm 1 mps 632 mmHg 94%
    20:00 -8°C° 0.1 mm 1 mps 632 mmHg 95%
    21:00 -8°C° 0.1 mm 1 mps 633 mmHg 95%
    22:00 -8°C° 0.1 mm 1 mps 633 mmHg 95%
    23:00 -9°C° 0 mm 1 mps 634 mmHg 95%

    24 January, Thursday

    Time Temperature Precipitation Wind Pressure Humidity
    00:00 -9°C° 0 mm 1 mps 634 mmHg 95%
    01:00 -10°C° 0 mm 0 mps 634 mmHg 95%
    02:00 -10°C° 0 mm 0 mps 635 mmHg 94%
    03:00 -10°C° 0 mm 0 mps 635 mmHg 94%
    04:00 -11°C° 0 mm 0 mps 635 mmHg 93%
    05:00 -11°C° 0 mm 0 mps 636 mmHg 93%
    06:00 -11°C° 0 mm 0 mps 636 mmHg 92%
    07:00 -11°C° 0 mm 0 mps 636 mmHg 92%
    08:00 -10°C° 0 mm 0 mps 637 mmHg 89%
    09:00 -9°C° 0 mm 0 mps 638 mmHg 87%
    10:00 -8°C° 0 mm 0 mps 638 mmHg 84%
    11:00 -7°C° 0 mm 0 mps 638 mmHg 82%
    12:00 -7°C° 0 mm 1 mps 638 mmHg 80%
    13:00 -6°C° 0 mm 1 mps 638 mmHg 78%
    14:00 -6°C° 0 mm 1 mps 638 mmHg 80%
    15:00 -6°C° 0 mm 1 mps 639 mmHg 81%
    16:00 -6°C° 0 mm 1 mps 639 mmHg 82%
    17:00 -7°C° 0 mm 1 mps 639 mmHg 84%
    18:00 -8°C° 0 mm 1 mps 639 mmHg 87%
    19:00 -9°C° 0 mm 0 mps 640 mmHg 90%
    20:00 -10°C° 0 mm 1 mps 640 mmHg 90%
    21:00 -10°C° 0 mm 1 mps 640 mmHg 89%
    22:00 -11°C° 0 mm 1 mps 640 mmHg 89%
    23:00 -11°C° 0 mm 1 mps 640 mmHg 88%

    25 January, Friday

    Time Temperature Precipitation Wind Pressure Humidity
    00:00 -12°C° 0 mm 1 mps 640 mmHg 87%
    01:00 -14°C° 0 mm 2 mps 640 mmHg 87%
    02:00 -14°C° 0 mm 2 mps 640 mmHg 85%
    03:00 -14°C° 0 mm 2 mps 640 mmHg 84%
    04:00 -14°C° 0 mm 2 mps 640 mmHg 83%
    05:00 -14°C° 0 mm 2 mps 640 mmHg 81%
    06:00 -14°C° 0 mm 2 mps 640 mmHg 80%
    07:00 -14°C° 0 mm 2 mps 640 mmHg 79%
    08:00 -13°C° 0 mm 2 mps 641 mmHg 77%
    09:00 -12°C° 0 mm 2 mps 641 mmHg 75%
    10:00 -10°C° 0 mm 2 mps 642 mmHg 74%
    11:00 -7°C° 0 mm 1 mps 642 mmHg 70%
    12:00 -4°C° 0 mm 1 mps 642 mmHg 67%
    13:00 -4°C° 0 mm 0 mps 642 mmHg 63%
    14:00 -4°C° 0 mm 0 mps 642 mmHg 67%
    15:00 -4°C° 0 mm 0 mps 642 mmHg 71%
    16:00 -5°C° 0 mm 0 mps 642 mmHg 75%
    17:00 -4°C° 0.1 mm 1 mps 642 mmHg 78%
    18:00 -6°C° 0.1 mm 1 mps 642 mmHg 82%
    19:00 -6°C° 0.1 mm 1 mps 642 mmHg 85%
    20:00 -6°C° 0.1 mm 1 mps 643 mmHg 86%
    21:00 -6°C° 0.1 mm 1 mps 643 mmHg 86%
    22:00 -6°C° 0.1 mm 1 mps 643 mmHg 87%
    23:00 -4°C° 0.1 mm 1 mps 643 mmHg 87%

    26 January, Saturday

    Time Temperature Precipitation Wind Pressure Humidity
    00:00 -4°C° 0.1 mm 1 mps 643 mmHg 87%
    01:00 -4°C° 0.1 mm 1 mps 643 mmHg 87%
    02:00 -4°C° 0.1 mm 1 mps 643 mmHg 87%
    03:00 -4°C° 0.1 mm 1 mps 642 mmHg 86%
    04:00 -4°C° 0.1 mm 1 mps 642 mmHg 86%
    05:00 -3°C° 0.1 mm 1 mps 642 mmHg 86%
    06:00 -3°C° 0.1 mm 1 mps 642 mmHg 87%
    07:00 -3°C° 0.1 mm 1 mps 642 mmHg 87%
    08:00 -2°C° 0.1 mm 1 mps 642 mmHg 86%
    09:00 -2°C° 0.1 mm 1 mps 642 mmHg 86%
    10:00 -1°C° 0.1 mm 1 mps 642 mmHg 85%
    11:00 0°C° 0 mm 1 mps 641 mmHg 85%
    12:00 0°C° 0 mm 1 mps 641 mmHg 86%
    13:00 +1°C° 0 mm 1 mps 640 mmHg 86%
    14:00 +1°C° 0 mm 1 mps 640 mmHg 87%
    15:00 +1°C° 0 mm 1 mps 639 mmHg 89%
    16:00 -1°C° 0 mm 0 mps 638 mmHg 90%
    17:00 -1°C° 0 mm 1 mps 638 mmHg 90%
    18:00 -1°C° 0 mm 1 mps 638 mmHg 89%
    19:00 -2°C° 0 mm 1 mps 637 mmHg 89%
    20:00 -3°C° 0 mm 1 mps 637 mmHg 88%
    21:00 -3°C° 0 mm 1 mps 636 mmHg 88%
    22:00 -3°C° 0 mm 1 mps 635 mmHg 87%
    23:00 -5°C° 0 mm 2 mps 635 mmHg 86%
    Show more